Location: Pensacola
(30.4142°N, 87.2155°W)
Time: 23:57:19
(UTC-06:00)

ISS - Visible Passes

Search period start: 24 November 2017 00:00
Search period end: 04 December 2017 00:00
Orbit: 401 x 407 km, 51.6° (Epoch: 25 November)

Date Brightness Start Highest point End Pass type
(mag) Time Alt. Az. Time Alt. Az. Time Alt. Az.
24 Nov -2.3 17:38:54 10° S 17:41:27 21° SE 17:42:42 17° E visible
24 Nov -0.3 19:15:08 10° W 19:15:23 11° W 19:15:23 11° W visible
25 Nov -3.2 18:22:13 10° WSW 18:25:22 48° NW 18:25:36 47° NNW visible
26 Nov -3.8 17:29:47 10° SW 17:33:02 69° SE 17:35:44 14° NE visible
27 Nov -1.6 18:14:48 10° W 18:17:13 19° NW 18:18:26 16° N visible
28 Nov -2.6 17:21:39 10° WSW 17:24:42 36° NW 17:27:47 10° NNE visible
30 Nov -1.3 17:14:26 10° WNW 17:16:30 16° NW 17:18:34 10° N visible
